TimeMDT,TemperatureF,Dew PointF,Humidity,Sea Level PressureIn,VisibilityMPH,Wind Direction,Wind SpeedMPH,Gust SpeedMPH,PrecipitationIn,Events,Conditions,WindDirDegrees,DateUTC
12:15 AM,69.3,48.4,47,30.31,10.0,Calm,Calm,-,N/A,,Mostly Cloudy,0,2013-08-19 06:15:00
12:35 AM,68.4,48.7,49,30.31,10.0,SSW,6.9,-,N/A,,Mostly Cloudy,210,2013-08-19 06:35:00
12:55 AM,67.1,49.5,53,30.31,10.0,Calm,Calm,-,N/A,,Scattered Clouds,0,2013-08-19 06:55:00
1:15 AM,65.8,49.1,55,30.31,10.0,SW,5.8,-,N/A,,Clear,220,2013-08-19 07:15:00
1:35 AM,65.5,49.3,56,30.31,10.0,West,4.6,-,N/A,,Clear,260,2013-08-19 07:35:00
1:55 AM,65.3,49.3,56,30.31,10.0,WSW,3.5,-,N/A,,Clear,250,2013-08-19 07:55:00
2:15 AM,63.3,49.3,60,30.29,10.0,Calm,Calm,-,N/A,,Clear,0,2013-08-19 08:15:00
2:35 AM,61.9,48.4,61,30.29,10.0,Calm,Calm,-,N/A,,Clear,0,2013-08-19 08:35:00
2:55 AM,60.6,47.7,62,30.29,10.0,North,4.6,-,N/A,,Clear,10,2013-08-19 08:55:00
3:15 AM,59.4,48.9,68,30.29,10.0,North,5.8,-,N/A,,Clear,350,2013-08-19 09:15:00
3:35 AM,59.2,49.3,70,30.29,10.0,Calm,Calm,-,N/A,,Clear,0,2013-08-19 09:35:00
3:55 AM,58.1,48.9,71,30.29,10.0,Calm,Calm,-,N/A,,Clear,0,2013-08-19 09:55:00
4:15 AM,57.4,49.6,75,30.28,10.0,Calm,Calm,-,N/A,,Clear,0,2013-08-19 10:15:00
4:35 AM,56.8,49.6,77,30.28,10.0,North,3.5,-,N/A,,Clear,360,2013-08-19 10:35:00
4:55 AM,54.0,47.8,80,30.28,10.0,North,3.5,-,N/A,,Clear,360,2013-08-19 10:55:00
5:15 AM,55.2,50.0,83,30.28,10.0,NNE,4.6,-,N/A,,Clear,30,2013-08-19 11:15:00
5:35 AM,55.0,49.5,81,30.27,10.0,Calm,Calm,-,N/A,,Clear,0,2013-08-19 11:35:00
5:55 AM,53.2,48.9,85,30.27,10.0,Calm,Calm,-,N/A,,Clear,0,2013-08-19 11:55:00
6:15 AM,53.6,49.1,85,30.28,10.0,WNW,5.8,-,N/A,,Clear,300,2013-08-19 12:15:00
6:35 AM,54.3,49.1,83,30.28,10.0,Calm,Calm,-,N/A,,Clear,0,2013-08-19 12:35:00
6:55 AM,52.9,48.2,84,30.28,10.0,Calm,Calm,-,N/A,,Clear,0,2013-08-19 12:55:00
7:15 AM,56.8,49.1,75,30.29,10.0,Calm,Calm,-,N/A,,Clear,0,2013-08-19 13:15:00
7:35 AM,59.5,49.3,69,30.29,10.0,Calm,Calm,-,N/A,,Clear,0,2013-08-19 13:35:00
7:55 AM,63.0,48.7,60,30.29,10.0,Calm,Calm,-,N/A,,Clear,0,2013-08-19 13:55:00
8:15 AM,65.8,48.6,54,30.29,10.0,Calm,Calm,-,N/A,,Clear,0,2013-08-19 14:15:00
8:35 AM,69.3,49.3,49,30.31,10.0,NNW,4.6,-,N/A,,Clear,340,2013-08-19 14:35:00
8:55 AM,72.0,48.6,43,30.30,10.0,NW,4.6,-,N/A,,Clear,320,2013-08-19 14:55:00
9:15 AM,73.4,46.9,39,30.30,10.0,North,5.8,-,N/A,,Clear,350,2013-08-19 15:15:00
9:35 AM,75.0,46.0,36,30.29,10.0,North,4.6,-,N/A,,Clear,360,2013-08-19 15:35:00
9:55 AM,75.4,47.3,37,30.29,10.0,North,6.9,-,N/A,,Clear,350,2013-08-19 15:55:00
10:15 AM,76.3,48.4,37,30.29,10.0,NNW,4.6,-,N/A,,Clear,340,2013-08-19 16:15:00
10:35 AM,77.0,47.7,35,30.29,10.0,NNW,3.5,-,N/A,,Clear,340,2013-08-19 16:35:00
10:55 AM,79.5,46.8,31,30.29,10.0,NNW,8.1,-,N/A,,Clear,340,2013-08-19 16:55:00
11:15 AM,81.9,45.3,28,30.29,10.0,North,5.8,-,N/A,,Clear,350,2013-08-19 17:15:00
11:35 AM,82.8,46.2,28,30.28,10.0,North,10.4,-,N/A,,Clear,350,2013-08-19 17:35:00
11:55 AM,82.8,45.0,26,30.28,10.0,North,6.9,-,N/A,,Clear,350,2013-08-19 17:55:00
12:15 PM,84.0,44.4,25,30.26,10.0,WSW,9.2,-,N/A,,Clear,240,2013-08-19 18:15:00
12:35 PM,85.5,44.1,23,30.26,10.0,WSW,5.8,-,N/A,,Clear,250,2013-08-19 18:35:00
12:55 PM,86.5,43.7,22,30.25,10.0,WNW,3.5,-,N/A,,Clear,300,2013-08-19 18:55:00
1:15 PM,85.5,44.1,23,30.24,10.0,South,4.6,-,N/A,,Scattered Clouds,180,2013-08-19 19:15:00
1:35 PM,85.8,44.4,23,30.24,10.0,WSW,9.2,-,N/A,Thunderstorm,Mostly Cloudy,240,2013-08-19 19:35:00
1:55 PM,84.2,44.4,25,30.23,10.0,WSW,8.1,-,N/A,,Scattered Clouds,240,2013-08-19 19:55:00
2:15 PM,84.7,44.6,24,30.22,10.0,WSW,8.1,-,N/A,Thunderstorm,Thunderstorm,240,2013-08-19 20:15:00
2:35 PM,83.7,44.2,25,30.22,10.0,North,10.4,-,N/A,Rain-Thunderstorm,Light Thunderstorms and Rain,350,2013-08-19 20:35:00
2:55 PM,82.2,44.4,26,30.22,7.0,WNW,16.1,20.7,N/A,Rain-Thunderstorm,Light Thunderstorms and Rain,290,2013-08-19 20:55:00
3:15 PM,75.9,48.6,38,30.21,10.0,WNW,13.8,-,N/A,Rain,Light Rain,290,2013-08-19 21:15:00
3:35 PM,79.0,46.0,31,30.20,10.0,West,4.6,-,N/A,,Mostly Cloudy,280,2013-08-19 21:35:00
3:55 PM,81.5,43.3,26,30.19,10.0,Calm,Calm,-,N/A,,Mostly Cloudy,0,2013-08-19 21:55:00
4:15 PM,84.2,41.0,22,30.18,10.0,Calm,Calm,-,N/A,,Scattered Clouds,0,2013-08-19 22:15:00
4:35 PM,85.8,40.3,20,30.17,10.0,Calm,Calm,-,N/A,,Clear,0,2013-08-19 22:35:00
4:55 PM,86.9,39.7,19,30.17,10.0,Calm,Calm,-,N/A,,Clear,0,2013-08-19 22:55:00
5:15 PM,85.6,37.8,18,30.17,10.0,Calm,Calm,-,N/A,,Clear,0,2013-08-19 23:15:00
5:35 PM,85.3,39.0,19,30.16,10.0,Calm,Calm,-,N/A,,Clear,0,2013-08-19 23:35:00
5:55 PM,83.8,42.1,23,30.17,10.0,ENE,16.1,-,N/A,Thunderstorm,Mostly Cloudy,60,2013-08-19 23:55:00
6:15 PM,81.7,42.4,25,30.19,10.0,ENE,16.1,24.2,N/A,Thunderstorm,Thunderstorm,70,2013-08-20 00:15:00
6:35 PM,74.3,47.1,38,30.23,1.0,WNW,21.9,36.8,N/A,Thunderstorm,Unknown,290,2013-08-20 00:35:00
6:55 PM,62.6,55.6,78,30.26,4.0,WNW,10.4,-,0.12,Rain-Thunderstorm,Rain,300,2013-08-20 00:55:00
7:15 PM,65.1,54.5,68,30.27,5.0,SSE,8.1,-,0.05,Rain-Thunderstorm,Thunderstorms and Rain,160,2013-08-20 01:15:00
7:35 PM,63.9,54.3,71,30.26,10.0,South,11.5,16.1,0.06,Rain-Thunderstorm,Light Thunderstorms and Rain,180,2013-08-20 01:35:00
7:55 PM,63.5,56.3,77,30.26,10.0,SSE,16.1,-,0.06,Rain-Thunderstorm,Light Thunderstorms and Rain,160,2013-08-20 01:55:00
8:15 PM,63.0,55.4,76,30.27,10.0,SSE,11.5,-,N/A,Rain-Thunderstorm,Light Thunderstorms and Rain,150,2013-08-20 02:15:00
8:35 PM,61.9,55.9,81,30.26,10.0,South,18.4,-,0.01,Rain-Thunderstorm,Light Thunderstorms and Rain,190,2013-08-20 02:35:00
8:55 PM,61.2,57.0,86,30.28,10.0,SSE,11.5,-,0.01,Rain-Thunderstorm,Light Thunderstorms and Rain,150,2013-08-20 02:55:00
9:15 PM,61.7,56.5,83,30.28,10.0,SE,15.0,21.9,N/A,,Light Drizzle,140,2013-08-20 03:15:00
9:35 PM,61.9,55.6,80,30.30,10.0,SSE,15.0,-,N/A,,Scattered Clouds,160,2013-08-20 03:35:00
9:55 PM,61.9,55.9,81,30.31,10.0,South,11.5,-,N/A,,Overcast,180,2013-08-20 03:55:00
10:15 PM,61.9,56.5,82,30.31,10.0,South,11.5,-,N/A,,Mostly Cloudy,170,2013-08-20 04:15:00
10:35 PM,61.3,57.2,86,30.31,10.0,South,11.5,-,N/A,,Scattered Clouds,180,2013-08-20 04:35:00
10:55 PM,61.2,56.8,86,30.29,10.0,South,12.7,-,N/A,,Scattered Clouds,180,2013-08-20 04:55:00
11:15 PM,61.0,56.8,86,30.31,10.0,South,8.1,-,N/A,,Scattered Clouds,170,2013-08-20 05:15:00
11:35 PM,60.8,56.8,87,30.29,10.0,South,9.2,-,N/A,,Scattered Clouds,170,2013-08-20 05:35:00
11:55 PM,60.3,56.5,87,30.29,10.0,SSW,9.2,-,N/A,,Scattered Clouds,200,2013-08-20 05:55:00